Weather Service Report


680 
ASUS44 KJAN 010210
RWRMS 

MISSISSIPPI HOURLY WEATHER ROUNDUP
NATIONAL WEATHER SERVICE JACKSON MS
900 PM CDT FRI JUL 31 2015

NOTE: "FAIR: INDICATES FEW OR NO CLOUDS BELOW 12,000 FEET WITH NO
SIGNIFICANT WEATHER AND/OR OBSTRUCTIONS TO VISIBILITY.

MSZ001>002-007>008-010>013-018>021-025>028-034>036-010300-
NORTHWEST MISSISSIPPI
  
CITY           SKY/WX    TMP DP  RH WIND       PRES   REMARKS
CLARKSDALE     FAIR      75  72  88 N7        30.02R                  
CLEVELAND      FAIR      76  71  84 N5        30.00R                  
GREENWOOD      CLEAR     76  67  73 CALM      29.99R                  
GREENVILLE     CLEAR     78  68  71 N6        29.99R                  
OLIVE BRANCH     N/A     79  68  69 N6        30.03R                  
OXFORD         FAIR      77  66  69 N3        30.03R                  
TUNICA         CLEAR     77  68  73 N8        30.02R                  
$$

MSZ003>006-009-014>017-022>024-029>033-037>039-010300-
NORTHEAST MISSISSIPPI
  
CITY           SKY/WX    TMP DP  RH WIND       PRES   REMARKS
COLUMBUS AFB   CLEAR     79  66  65 N7        29.98R                  
CORINTH        FAIR      75  70  83 CALM      30.01R                  
GOLDN TRIANGLE CLEAR     81  63  54 N6        29.98R                  
STARKVILLE     MOCLDY    77  66  69 NW3       29.99R                  
TUPELO         CLEAR     77  64  64 N6        29.99R                  
$$

MSZ040-058-010300-
CENTRAL MISSISSIPPI
  
CITY           SKY/WX    TMP DP  RH WIND       PRES   REMARKS
JACKSON INTL   CLEAR     84  60  44 N6        29.97R                  
JACKSON HAWKNS CLEAR     84  61  45 N5        29.98R                  
MERIDIAN KEY   CLEAR     75  63  66 N6        29.95S                  
MERIDIAN NAS   CLEAR     78  63  59 N5        29.96R                  
VICKSBURG      CLEAR     81  67  62 N10       29.97R                  
$$

MSZ059>079-010300-
SOUTH MISSISSIPPI
  
CITY           SKY/WX    TMP DP  RH WIND       PRES   REMARKS
BROOKHAVEN     FAIR      73  64  73 N3        29.98R                  
HATTIESBURG    CLEAR     75  69  81 CALM      29.93S                  
MCCOMB         CLEAR     83  58  42 N3        29.95R                  
NATCHEZ        CLEAR     77  66  69 NE3       29.97R                  
PINE BELT      CLEAR     75  50  41 N5        29.96S                  
$$

MSZ080>082-010300-
COASTAL MISSISSIPPI
  
CITY           SKY/WX    TMP DP  RH WIND       PRES   REMARKS
BAY ST LOUIS   CLEAR     84  61  45 N6        29.90R                  
BILOXI         CLEAR     86  72  62 N7        29.88S HX  91           
PASCAGOULA     PTCLDY    83  72  69 E5        29.89S                  
GULFPORT       CLEAR     86  68  54 N7        29.88S                  
$$

Return to Home page


Western Regional Climate Center, wrcc@dri.edu